sat.trackr.live / text

‹ back to catalog

HULIANWANG DIGUI-176

NORAD 69579 · 2026-137H

PAYLOAD ACTIVE UNKNOWN

§ Identity

Operator
Country
PRC
Launch date
2026-06-17
Launch site
WSC
Launch vehicle
Mass (kg)
RCS (m²)

External: N2YO · Heavens-Above · Gunter

§ Orbital elements

Epoch: 2026-09-20T01:22:48.703296Z

Period
108.33 min
Inclination
49.9995°
Eccentricity
0.0000335
Mean motion
13.29325250 rev/d
Perigee alt
1,149.1 km
Apogee alt
1,149.6 km
Semi-major
7,527.4 km
B*
9.2353e-5
RAAN
255.3726°
Arg perigee
347.2936°
Mean anomaly
12.7927°
Rev number
1,295

§ Raw data

HULIANWANG DIGUI-1761 69579U 26137H   26263.05750814 -.00000081  00000+0  92353-4 0  99992 69579  49.9995 255.3726 0000335 347.2936  12.7927 13.29325250 12955

JSON: /api/v1/satellites/69579 · /tle

For live sub-satellite position, see the globe view (requires WebGL).

§ Visibility from observer

Set your observer location to see the next 7 days of passes ≥ 10°. The values pass through the URL so the page stays shareable.

No JS? Fill the form by hand. The geolocation button needs JavaScript.